{"data":{"norad_id":59642,"epoch":"2026-05-25T02:00:43.742304Z","epoch_age_seconds":71239,"freshness":"FRESH","line1":"1 59642U 24082M   26145.08383961 -.00000333  00000+0 -25729-5 0  9998","line2":"2 59642  43.0020  28.0002 0001405 271.9168  88.1522 15.27578817117155","mean_motion":15.27578817,"eccentricity":0.0001405,"inclination_deg":43.002,"raan_deg":28.0002,"arg_perigee_deg":271.9168,"mean_anomaly_deg":88.1522,"bstar":-2.5729e-6,"rev_number":11715,"period_min":94.266821716473,"perigee_km":482.08864122533,"apogee_km":484.01663551371,"semimajor_km":6861.1896383695,"source":"CELESTRAK","updated_at":"2026-05-25T13:38:19.015071Z"}}